Home   Weather   Tananger   Past weeks

Flag for Norway Past Weather in Tananger, Norway — Yesterday and Last 2 Weeks

45 °F

Passing clouds.

Feels Like: 43 °F
Forecast: 48 / 54 °F
Wind: 3 mph from South

Location: Stavanger / Sola

Current Time: Oct 25, 2016 at 7:21:17 PM

Latest Report: Oct 25, 2016 at 6:50 PM

Visibility: N/A

Pressure: 30.30 "Hg

Humidity: 76%

Dew Point: 37 °F

Location of TanangerLocation

Past Weather in Tananger — Graph


Tananger Temperature Yesterday

Maximum temperature yesterday: 50 °F (at 12:50 PM)
Minimum temperature yesterday: 34 °F (at 11:50 PM)
Average temperature yesterday: 43 °F

High & Low Weather Summary for the Past Weeks

High57 °F (Oct 17, 1:20 PM)100% (Oct 20, 2:50 AM)30.54 "Hg (Oct 20, 2:50 AM)
Low30 °F (Oct 25, 6:20 AM)30% (Oct 15, 12:20 PM)29.89 "Hg (Oct 18, 4:20 PM)
Average47 °F66%30.24 "Hg
* Reported Oct 10 5:20 PM — Oct 25 5:50 PM, Tananger, Weather by CustomWeather, © 2016

Note: Actual official high and low records may vary slightly from our data, if they occured in-between our weather recording intervals... More about our weather records


Tananger Weather History for the Previous 24 Hours

Scroll right to see more
Time TempWeatherWind HumidityBarometerVisibility
5:50 PM
Tue, Oct 25
45 °FPartly sunny.5 mph76%30.30 "HgN/A
5:20 PM45 °FPartly sunny.7 mph76%30.30 "HgN/A
4:50 PM46 °FPartly sunny.7 mph66%30.30 "HgN/A
4:20 PM46 °FPartly sunny.8 mph66%30.30 "HgN/A
3:50 PM46 °FPartly sunny.7 mph66%30.27 "HgN/A
3:20 PM48 °FScattered clouds.5 mph62%30.27 "HgN/A
2:50 PM48 °FPassing clouds.5 mph58%30.27 "HgN/A
2:20 PM48 °FPassing clouds.3 mph58%30.30 "HgN/A
1:50 PM46 °FPassing clouds.3 mph62%30.30 "HgN/A
1:20 PM46 °FPassing clouds.2 mph66%30.30 "HgN/A
12:50 PM46 °FPassing clouds.5 mph66%30.30 "HgN/A
12:20 PM41 °FPassing clouds.No wind76%30.30 "HgN/A
11:50 AM41 °FSunny.3 mph76%30.30 "Hg10 mi
11:20 AM39 °FSunny.2 mph81%30.27 "Hg10 mi
10:50 AM36 °FSunny.No wind87%30.27 "Hg10 mi
10:20 AM34 °FPassing clouds.3 mph87%30.27 "HgN/A
9:50 AM32 °FPassing clouds.6 mph87%30.27 "HgN/A
9:20 AM32 °FSunny.2 mph87%30.27 "Hg10 mi
8:50 AM30 °FSunny.No wind93%30.27 "Hg10 mi
8:20 AM32 °FClear.1 mph87%30.27 "Hg10 mi
7:50 AM32 °FClear.2 mph93%30.27 "Hg10 mi
7:20 AM34 °FPassing clouds.3 mph87%30.24 "HgN/A
6:50 AM30 °FClear.3 mph93%30.24 "Hg10 mi
6:20 AM30 °FClear.2 mph93%30.24 "Hg10 mi
5:50 AM32 °FClear.2 mph93%30.24 "Hg10 mi
4:50 AM34 °FClear.5 mph87%30.24 "Hg10 mi
3:50 AM34 °FClear.2 mph87%30.24 "Hg10 mi
2:50 AM32 °FPassing clouds.3 mph87%30.24 "HgN/A
1:50 AM32 °FClear.No wind87%30.24 "Hg10 mi
12:50 AM32 °FClear.1 mph87%30.24 "Hg10 mi
11:50 PM
Mon, Oct 24
34 °FClear.1 mph81%30.24 "Hg10 mi
11:20 PM36 °FClear.2 mph81%30.24 "Hg10 mi
10:50 PM36 °FClear.3 mph81%30.24 "Hg10 mi
10:20 PM36 °FClear.2 mph81%30.24 "Hg10 mi
9:50 PM36 °FClear.2 mph81%30.24 "Hg10 mi
9:20 PM37 °FClear.2 mph75%30.24 "Hg10 mi
8:50 PM37 °FClear.1 mph75%30.24 "Hg10 mi
8:20 PM39 °FClear.No wind70%30.24 "Hg10 mi
7:50 PM41 °FClear.No wind66%30.24 "Hg10 mi
7:20 PM45 °FClear.6 mph61%30.24 "Hg10 mi
Weather by CustomWeather, © 2016

See weather overviewHow to use our weather pages